TimeMDT,TemperatureF,Dew PointF,Humidity,Sea Level PressureIn,VisibilityMPH,Wind Direction,Wind SpeedMPH,Gust SpeedMPH,PrecipitationIn,Events,Conditions,WindDirDegrees,DateUTC
12:20 AM,42.8,39.2,87,29.95,10.0,NE,9.2,-,N/A,,Mostly Cloudy,50,2012-10-22 06:20:00
12:53 AM,45.0,41.0,86,29.91,10.0,NE,6.9,-,N/A,,Overcast,50,2012-10-22 06:53:00
1:53 AM,44.1,39.9,85,29.89,10.0,ENE,9.2,-,N/A,,Overcast,70,2012-10-22 07:53:00
2:53 AM,45.0,41.0,86,29.88,10.0,ENE,8.1,-,N/A,,Overcast,70,2012-10-22 08:53:00
3:42 AM,44.6,39.2,81,29.94,10.0,NE,4.6,-,N/A,,Overcast,40,2012-10-22 09:42:00
3:53 AM,44.1,39.9,85,29.89,10.0,NNE,6.9,-,N/A,,Overcast,30,2012-10-22 09:53:00
4:53 AM,44.1,39.0,82,29.90,10.0,East,4.6,-,N/A,,Overcast,80,2012-10-22 10:53:00
5:00 AM,44.6,39.2,81,29.94,10.0,East,4.6,-,N/A,,Overcast,80,2012-10-22 11:00:00
5:53 AM,44.1,39.0,82,29.91,10.0,Calm,Calm,-,N/A,,Overcast,0,2012-10-22 11:53:00
6:53 AM,43.0,39.0,86,29.93,10.0,NNE,5.8,-,N/A,,Overcast,30,2012-10-22 12:53:00
7:53 AM,43.0,37.9,82,29.95,10.0,SW,3.5,-,N/A,,Overcast,230,2012-10-22 13:53:00
8:53 AM,44.1,39.0,82,29.96,10.0,Calm,Calm,-,N/A,,Overcast,0,2012-10-22 14:53:00
9:53 AM,44.1,39.0,82,29.95,10.0,Calm,Calm,-,N/A,,Overcast,0,2012-10-22 15:53:00
10:53 AM,44.6,39.2,81,29.92,10.0,Calm,Calm,-,N/A,,Overcast,0,2012-10-22 16:53:00
11:53 AM,48.0,39.0,71,29.90,10.0,South,8.1,-,N/A,,Mostly Cloudy,180,2012-10-22 17:53:00
12:23 PM,51.8,39.2,62,29.89,10.0,Variable,4.6,-,N/A,,Scattered Clouds,0,2012-10-22 18:23:00
12:53 PM,52.0,39.9,63,29.85,10.0,SSE,6.9,-,N/A,,Clear,160,2012-10-22 18:53:00
1:53 PM,57.0,39.9,53,29.80,10.0,Variable,5.8,-,N/A,,Clear,0,2012-10-22 19:53:00
2:53 PM,60.1,39.0,46,29.75,10.0,SSE,10.4,-,N/A,,Clear,160,2012-10-22 20:53:00
3:53 PM,61.0,39.0,44,29.73,10.0,South,12.7,-,N/A,,Clear,170,2012-10-22 21:53:00
4:53 PM,57.9,39.0,49,29.73,10.0,SE,10.4,-,N/A,,Clear,140,2012-10-22 22:53:00
5:53 PM,54.0,39.0,57,29.73,10.0,SE,9.2,-,N/A,,Clear,140,2012-10-22 23:53:00
6:53 PM,45.0,36.0,71,29.75,10.0,SE,9.2,-,N/A,,Clear,140,2012-10-23 00:53:00
7:53 PM,44.1,37.0,76,29.75,10.0,SSE,9.2,-,N/A,,Clear,160,2012-10-23 01:53:00
8:53 PM,44.1,37.9,79,29.75,10.0,SSE,4.6,-,N/A,,Clear,160,2012-10-23 02:53:00
9:53 PM,43.0,39.0,86,29.76,10.0,ESE,5.8,-,N/A,,Clear,120,2012-10-23 03:53:00
10:53 PM,43.0,41.0,93,29.74,6.0,SE,5.8,-,N/A,,Clear,140,2012-10-23 04:53:00
11:15 PM,44.6,42.8,93,29.74,6.0,SSE,9.2,-,N/A,,Mostly Cloudy,150,2012-10-23 05:15:00
11:51 PM,44.6,42.8,93,29.74,6.0,SSE,6.9,-,N/A,,Overcast,160,2012-10-23 05:51:00
11:53 PM,44.6,42.8,93,29.74,6.0,South,6.9,-,N/A,,Overcast,170,2012-10-23 05:53:00